Date String (YYYY-MM-DD hh:mm:ss) UTC,Instrument flags,absolute air pressure of the measurement (hPa),sample flow rate (lpm),inlet stack bypass flow (lpm),air temperature of the measurement (°C),ambient temperature measured by the external sensor (°C),aerosol sample conditioner tube jacket temperature (°C),OPC LED temperature (°C),internal box temperature (°C),relative humidity of the measurement (%),span deviation,mass concentration of particles derived from Lorenz-Mie calculation of OPC scattering (μg/m³),mass concentration of particles derived from Lorenz-Mie calculation of OPC scattering (μg/m³),mass concentration of particles derived from Lorenz-Mie calculation of OPC scattering (μg/m³)
DateTimeUTC,F1_M11,P_M11,Q1_M11,Q2_M11,T1_M11,T2_M11,T3_M11,T4_M11,T5_M11,U1_M11,ZSPAN_M11,X2_M11,X0_M11,X1_M11
2023-12-15 13:00:00,SystemResetWarning,0834.0,5.00,000.00,018.8,018.1,000.0,027.2,020.0,17.4,0000.0,0001.66,0002.17,0001.52
2023-12-15 13:01:00,SystemResetWarning,0834.0,5.00,000.00,018.8,018.1,000.0,027.2,020.0,17.2,0000.0,0001.89,0002.50,0001.75
2023-12-15 13:02:00,SystemResetWarning,0834.1,5.00,000.00,018.8,018.0,000.0,027.2,020.0,16.6,0000.0,0002.05,0002.67,0001.91
2023-12-15 13:03:00,SystemResetWarning,0834.1,5.00,000.00,018.8,018.0,000.0,027.2,020.0,16.5,0000.0,0002.19,0002.84,0002.04
2023-12-15 13:04:00,SystemResetWarning,0834.1,5.00,000.00,018.8,018.0,000.0,027.2,020.0,16.4,0000.0,0002.34,0003.02,0002.16
2023-12-15 13:05:00,SystemResetWarning,0834.1,5.00,000.00,018.8,018.0,000.0,027.2,020.0,16.2,0000.0,0002.36,0003.01,0002.15
2023-12-15 13:06:00,SystemResetWarning,0834.1,5.00,000.00,018.8,018.0,000.0,027.2,020.0,16.3,0000.0,0002.40,0003.06,0002.19
2023-12-15 13:07:00,SystemResetWarning,0834.1,5.00,000.00,018.8,017.9,000.0,027.2,020.0,16.6,0000.0,0002.46,0003.16,0002.22
2023-12-15 13:08:00,SystemResetWarning,0834.1,5.00,000.00,018.8,017.9,000.0,027.2,020.0,16.9,0000.0,0002.44,0003.16,0002.19
2023-12-15 13:09:00,SystemResetWarning,0834.1,5.00,000.00,018.8,017.9,000.0,027.2,020.0,17.0,0000.0,0002.37,0003.12,0002.12
2023-12-15 13:10:00,SystemResetWarning,0834.1,5.00,000.00,018.8,017.9,000.0,027.2,020.0,17.2,0000.0,0002.31,0002.97,0002.05
2023-12-15 13:11:00,SystemResetWarning,0834.1,5.00,000.00,018.8,017.9,000.0,027.2,020.0,17.2,0000.0,0002.14,0002.73,0001.88
2023-12-15 13:12:00,SystemResetWarning,0834.2,5.00,000.00,018.8,017.9,000.0,027.2,020.0,17.3,0000.0,0001.98,0002.57,0001.70
2023-12-15 13:13:00,SystemResetWarning,0834.2,5.00,000.00,018.8,017.9,000.0,027.2,020.0,17.2,0000.0,0001.89,0002.50,0001.59
2023-12-15 13:14:00,SystemResetWarning,0834.2,5.00,000.00,018.8,017.9,000.0,027.2,020.0,17.1,0000.0,0001.81,0002.40,0001.52
2023-12-15 13:15:00,SystemResetWarning,0834.2,5.00,000.00,018.8,017.8,000.0,027.2,020.0,17.0,0000.0,0001.73,0002.33,0001.46
2023-12-15 13:16:00,SystemResetWarning,0834.3,5.00,000.00,018.8,017.8,000.0,027.2,020.0,16.9,0000.0,0001.73,0002.32,0001.50
2023-12-15 13:17:00,SystemResetWarning,0834.2,5.00,000.00,018.8,017.8,000.0,027.2,020.0,17.0,0000.0,0001.76,0002.31,0001.56
2023-12-15 13:18:00,SystemResetWarning,0834.3,5.00,000.00,018.8,017.8,000.0,027.2,020.0,16.9,0000.0,0001.78,0002.31,0001.58
2023-12-15 13:19:00,SystemResetWarning,0834.4,5.01,000.00,018.8,017.8,000.0,027.2,020.0,16.9,0000.0,0001.81,0002.35,0001.60
2023-12-15 13:20:00,SystemResetWarning,0834.4,5.01,000.00,018.8,017.8,000.0,027.2,020.0,16.8,0000.0,0001.87,0002.72,0001.65
2023-12-15 13:21:00,SystemResetWarning,0834.4,5.00,000.00,018.8,017.8,000.0,027.2,020.0,16.8,0000.0,0001.91,0002.85,0001.69
2023-12-15 13:22:00,SystemResetWarning,0834.4,4.99,000.00,018.8,017.8,000.0,027.2,020.0,16.4,0000.0,0001.94,0002.89,0001.73
2023-12-15 13:23:00,SystemResetWarning,0834.4,4.99,000.00,018.8,017.8,000.0,027.2,020.0,16.1,0000.0,0001.96,0002.82,0001.78
2023-12-15 13:24:00,SystemResetWarning,0834.4,5.00,000.00,018.8,017.7,000.0,027.2,020.0,16.0,0000.0,0002.03,0002.90,0001.83
2023-12-15 13:25:00,SystemResetWarning,0834.4,5.01,000.00,018.7,017.7,000.0,027.2,020.0,15.7,0000.0,0002.03,0002.92,0001.82
2023-12-15 13:26:00,SystemResetWarning,0834.4,5.01,000.00,018.7,017.7,000.0,027.2,020.0,15.4,0000.0,0002.00,0002.86,0001.79
2023-12-15 13:27:00,SystemResetWarning,0834.4,4.99,000.00,018.8,017.7,000.0,027.2,020.0,15.4,0000.0,0001.94,0002.81,0001.73
2023-12-15 13:28:00,SystemResetWarning,0834.5,4.99,000.00,018.7,017.7,000.0,027.1,020.0,15.8,0000.0,0001.85,0002.74,0001.64
2023-12-15 13:29:00,SystemResetWarning,0834.5,5.00,000.00,018.8,017.7,000.0,027.1,020.0,15.8,0000.0,0001.76,0002.64,0001.57
2023-12-15 13:30:00,SystemResetWarning,0834.4,5.00,000.00,018.8,017.7,000.0,027.1,020.0,15.8,0000.0,0001.69,0002.54,0001.51
2023-12-15 13:31:00,SystemResetWarning,0834.5,5.00,000.00,018.8,017.7,000.0,027.1,020.0,15.2,0000.0,0001.61,0002.11,0001.44
2023-12-15 13:32:00,SystemResetWarning,0834.5,5.01,000.00,018.8,017.7,000.0,027.1,020.0,15.4,0000.0,0001.55,0001.98,0001.39
2023-12-15 13:33:00,SystemResetWarning,0834.5,5.00,000.00,018.7,017.7,000.0,027.1,020.0,15.5,0000.0,0001.48,0001.90,0001.33
2023-12-15 13:34:00,SystemResetWarning,0834.5,5.00,000.00,018.7,017.7,000.0,027.1,020.0,15.0,0000.0,0001.39,0001.80,0001.24
2023-12-15 13:35:00,SystemResetWarning,0834.5,5.00,000.00,018.7,017.7,000.0,027.1,020.0,14.7,0000.0,0001.29,0001.66,0001.18
2023-12-15 13:36:00,SystemResetWarning,0834.5,5.00,000.00,018.7,017.7,000.0,027.1,020.0,14.6,0000.0,0001.30,0001.68,0001.17
2023-12-15 13:37:00,SystemResetWarning,0834.5,4.99,000.00,018.7,017.7,000.0,027.2,020.0,14.9,0000.0,0001.28,0001.73,0001.16
2023-12-15 13:38:00,SystemResetWarning,0834.5,5.00,000.00,018.7,017.7,000.0,027.2,020.0,15.3,0000.0,0001.26,0001.73,0001.14
2023-12-15 13:39:00,SystemResetWarning,0834.5,5.00,000.00,018.7,017.7,000.0,027.2,020.0,15.6,0000.0,0001.26,0001.74,0001.13
2023-12-15 13:40:00,SystemResetWarning,0834.6,5.00,000.00,018.7,017.7,000.0,027.2,020.0,15.8,0000.0,0001.28,0001.76,0001.14
2023-12-15 13:41:00,SystemResetWarning,0834.6,5.00,000.00,018.7,017.7,000.0,027.2,020.0,16.1,0000.0,0001.32,0001.84,0001.17
2023-12-15 13:42:00,SystemResetWarning,0834.5,5.00,000.00,018.7,017.6,000.0,027.2,020.0,16.2,0000.0,0001.34,0001.89,0001.18
2023-12-15 13:43:00,SystemResetWarning,0834.9,5.00,000.00,018.7,017.6,000.0,027.2,020.0,16.1,0000.0,0001.38,0001.95,0001.20
2023-12-15 13:44:00,SystemResetWarning,0834.7,5.00,000.00,018.7,017.6,000.0,027.2,020.0,16.0,0000.0,0001.41,0001.99,0001.23
2023-12-15 13:45:00,SystemResetWarning,0834.9,5.01,000.00,018.7,017.7,000.0,027.1,020.3,15.9,0000.0,0001.46,0002.10,0001.26
2023-12-15 13:46:00,SystemResetWarning,0835.0,5.01,000.00,018.8,018.3,000.0,027.1,020.8,15.8,0000.0,0001.46,0002.14,0001.27
2023-12-15 13:47:00,SystemResetWarning,0835.0,5.00,000.00,019.0,018.9,000.0,027.2,020.8,15.6,0000.0,0001.44,0002.10,0001.27
2023-12-15 13:48:00,SystemResetWarning,0835.1,4.99,000.00,019.0,018.8,000.0,027.2,020.6,15.6,0000.0,0001.47,0002.09,0001.29
2023-12-15 13:49:00,SystemResetWarning,0835.0,5.00,000.00,019.0,018.7,000.0,027.2,020.4,15.6,0000.0,0001.50,0002.08,0001.31
2023-12-15 13:50:00,SystemResetWarning,0835.0,5.00,000.00,019.0,018.6,000.0,027.2,020.3,15.4,0000.0,0001.52,0002.09,0001.33
2023-12-15 13:51:00,SystemResetWarning,0835.1,5.00,000.00,018.9,018.4,000.0,027.2,020.2,15.3,0000.0,0001.53,0002.14,0001.34
2023-12-15 13:52:00,SystemResetWarning,0835.0,5.00,000.00,018.9,018.3,000.0,027.2,020.1,15.1,0000.0,0001.53,0002.13,0001.34
2023-12-15 13:53:00,SystemResetWarning,0835.1,5.00,000.00,018.8,018.1,000.0,027.2,020.0,15.1,0000.0,0001.51,0002.07,0001.33
2023-12-15 13:54:00,SystemResetWarning,0835.1,5.00,000.00,018.8,018.0,000.0,027.2,020.0,15.1,0000.0,0001.46,0001.95,0001.31
2023-12-15 13:55:00,SystemResetWarning,0834.6,5.00,000.00,018.8,018.0,000.0,027.2,020.0,15.1,0000.0,0001.41,0001.90,0001.27
2023-12-15 13:56:00,SystemResetWarning,0834.7,5.00,000.00,018.8,017.9,000.0,027.2,020.0,15.2,0000.0,0001.38,0001.83,0001.23
2023-12-15 13:57:00,SystemResetWarning,0834.7,5.01,000.00,018.8,017.9,000.0,027.2,020.0,15.2,0000.0,0001.39,0002.26,0001.21
2023-12-15 13:58:00,SystemResetWarning,0834.7,5.00,000.00,018.8,017.8,000.0,027.2,020.0,15.2,0000.0,0001.36,0002.25,0001.19
2023-12-15 13:59:00,SystemResetWarning,0834.7,5.00,000.00,018.7,017.8,000.0,027.2,020.0,15.1,0000.0,0001.31,0002.16,0001.16
